www.pogodaiklimat.ru

Погода и климат >> Архив погоды >> Индия >> Телингана >> Низамабад


ПОГОДА в Низамабаде

  • Прогноз погоды в Низамабаде
  • Монитор погоды в Низамабаде

АРХИВ ПОГОДЫ в Низамабаде

Время (UTC), дата Ветер
(напр.,м/с)
 
Видим.   Явления Облачность Т
(С)
Тd
(С)
f
(%)
Тe
(С)
Тes
(С)
Комфортность P
(гПа)
Po
(гПа)
Тmin
(С)
Tmax
(С)
R
(мм)
R24
(мм)
S
(см)
00 19.08 штиль 0 4000 м 6/3 600 м
[Sc Ci fib]
+25.0 +22.9 88 +33 +33 очень
душно
1006.2 963.6
03 19.08 штиль 0 10 км 6/1 600 м
[Cu med, cong Ac trans Ci fib]
+26.8 +23.0 80 +36 +42 очень
душно
1007.9 965.5 +24.5 +30.8
06 19.08 ЮЗ 1 10 км 6/4 600 м
[Cu Sc Ci fib]
+30.4 +23.1 65 +41 +54 опасность
перегрева
1007.3 965.5
09 19.08 З 1 10 км 6/4 600 м
[Cu Sc Ac trans Ci fib]
+33.0 +22.1 53 +42 +51 опасность
перегрева
1004.5 963.1
12 19.08 З 1 10 км 5/3 600 м
[Cu Sc Ac trans Ci fib]
+30.2 +23.5 67 +41 +42 опасность
перегрева
1003.5 961.9 +33.4
15 19.08 штиль 0 4000 м 8/3 600 м
[Cu Sc Ac trans Cs]
+28.6 +23.0 72 +38 +38 очень
душно
1005.9 963.9
00 20.08 штиль 0 4000 м 9/3 600 м
[Sc Ac trans Cs]
+27.0 +23.5 81 +37 +37 очень
душно
1006.2 964.0
03 20.08 З 1 10 км 8/3 600 м
[Sc Ac trans Ci fib]
+28.0 +23.3 76 +38 +42 очень
душно
1007.5 965.3 +25.8 +33.4
06 20.08 З 2 10 км 9/4 600 м
[Cu Sc Ac As Cs]
+29.0 +22.8 69 +38 +46 очень
душно
1007.1 965.1
09 20.08 ЮЗ 1 10 км 9/4 600 м
[Cu Sc Ac trans Ci fib]
+30.8 +23.6 66 +42 +48 опасность
перегрева
1004.1 962.5
12 20.08 ЮЗ 1 10 км {морось} 10/3 600 м
[Cu Sc Cs]
+29.8 +24.1 72 +42 +42 опасность
перегрева
1003.0 961.3 +32.1 0.0
15 20.08 штиль 0 4000 м слаб. морось {гроза, дождь} 10/4 300 м
[St Ac As]
+25.4 +24.5 95 +36 +36 очень
душно
1005.8 963.4 6
00 21.08 ЮЗ 1 4000 м {морось} 8/4 600 м
[Sc Cs]
+25.4 +23.3 88 +34 +34 очень
душно
1004.9 962.6 6
03 21.08 штиль 0 10 км 9/3 600 м
[Sc Ac As Ci fib]
+26.0 +23.4 86 +35 +39 очень
душно
1006.2 963.8 +23.9 +32.1 6
06 21.08 СЗ 1 10 км 10/4 600 м
[Cu Sc Ac As]
+28.4 +23.8 76 +39 +43 очень
душно
1006.2 964.2
09 21.08 З 2 4000 м гроза, ливневой дождь 10/3 300 м
[Cb cap Ac As]
+26.2 +24.4 90 +37 +40 очень
душно
1004.4 962.2 2
12 21.08 штиль 0 4000 м слаб. морось {гроза} 10/3 300 м
[Cb cap Ac As]
+25.0 +23.5 91 +34 +34 очень
душно
1004.3 961.0 +30.1 3
15 21.08 З 1 4000 м в посл. час гроза {морось} 10/3 300 м
[Cb cap Ac As]
+24.0 +23.4 96 +32 +32 очень
душно
1005.5 962.9 4
00 22.08 ЮЗ 1 4000 м 8/3 600 м
[Sc Cs]
+24.0 +21.9 88 +31 +31 очень
душно
1004.9 962.3 4
03 22.08 ЮЗ 1 10 км 9/1 600 м
[Sc Ac trans Cs]
+25.8 +22.9 84 +34 +38 очень
душно
1005.7 963.3 +23.4 +30.1 4
06 22.08 СЗ 1 10 км 9/5 600 м
[Cu Sc Ac trans Ci fib]
+28.6 +24.0 76 +40 +47 очень
душно
1005.5 963.5
09 22.08 З 2 10 км 6/4 600 м
[Cu Sc Ac trans Ci fib]
+32.0 +22.6 58 +42 +50 опасность
перегрева
1001.7 960.3
12 22.08 штиль 0 4000 м слаб. дождь {гроза} 10/4 300 м
[Frnb Ac As]
+25.0 +23.8 93 +34 +34 очень
душно
1002.8 960.4 +32.0 11
15 22.08 штиль 0 4000 м {дождь} 10/4 300 м
[Frnb Ac As]
+25.0 +23.2 90 +33 +33 очень
душно
1004.4 962.0 11
00 23.08 ЮЗ 2 10 км {дождь} 10/4 600 м
[Sc Ac As]
+24.6 +22.5 88 +32 +32 очень
душно
1004.4 961.9 12
03 23.08 штиль 0 10 км 9/3 600 м
[Sc Ac As Cs]
+25.0 +22.0 83 +32 +36 очень
душно
1006.0 963.4 +23.3 +32.0 12
06 23.08 штиль 0 10 км 10/4 600 м
[Cu Sc Ac As Cs]
+28.0 +22.7 73 +37 +46 очень
душно
1005.6 963.5
09 23.08 З 1 10 км 10/4 600 м
[Cu Sc Ac As]
+29.2 +23.0 69 +39 +42 очень
душно
1003.1 961.4
12 23.08 З 1 10 км 10/4 600 м
[Cu Sc Ac As]
+29.0 +23.1 71 +39 +39 очень
душно
1002.7 960.9 +29.9
15 23.08 штиль 0 4000 м 10/4 300 м
[Cu Sc Ac As]
+26.8 +23.8 84 +37 +37 очень
душно
1004.7 962.5
00 24.08 ЮЗ 1 4000 м 6/0
[Ac trans Cs]
+24.8 +21.5 82 +32 +32 очень
душно
1004.5 962.0
03 24.08 ЮЗ 2 10 км 6/0
[Ac trans Cs]
+26.0 +22.1 79 +34 +40 очень
душно
1006.3 963.9 +24.0 +29.9
06 24.08 ЮЗ 1 10 км 6/1 600 м
[Cu Sc Ac trans Cs]
+29.8 +21.8 62 +38 +54 опасность
солнечного
удара
1005.9 964.1
09 24.08 З 2 10 км 5/3 600 м
[Cu Sc Ac trans Ci fib]
+32.0 +22.6 58 +42 +52 опасность
перегрева
1002.5 961.1
12 24.08 З 1 10 км 9/3 600 м
[Cu Sc Ac trans Cs]
+30.2 +22.5 63 +39 +40 очень
душно
1001.6 960.1 +32.4
15 24.08 штиль 0 4000 м 9/3 600 м
[Cu Sc Ac trans Cs]
+28.2 +23.5 76 +38 +38 очень
душно
1003.8 961.9
00 25.08 ЮЗ 1 4000 м 6/0
[Ac trans Cs]
+25.2 +22.5 85 +33 +33 очень
душно
1004.0 961.7
03 25.08 ЮЗ 2 10 км 9/1 600 м
[Sc Ac trans Cs]
+26.0 +21.5 76 +33 +37 очень
душно
1004.7 962.4 +24.9 +32.4
06 25.08 ЮЗ 2 10 км 10/4 600 м
[Cu Sc Ac trans Cs]
+28.8 +22.3 68 +38 +44 очень
душно
1004.3 962.4
09 25.08 ЮЗ 1 10 км 9/4 600 м
[Cu Sc Ac trans Ci fib]
+31.6 +22.6 59 +41 +47 опасность
перегрева
1001.2 959.8
12 25.08 штиль 0 10 км 10/3 600 м
[Cu Sc Ac As Ci fib]
+29.6 +21.6 62 +38 +38 очень
душно
1001.3 959.6 +32.2
15 25.08 штиль 0 4000 м 10/3 600 м
[Sc Ac As]
+27.0 +22.3 75 +35 +35 очень
душно
1003.8 961.6

 

Местоположение метеостанции Низамабад (Телингана, Индия): широта 18.67 долгота 78.10 высота над уровнем моря 381 м.

В архиве по умолчанию представлена погода в Низамабаде за последнюю неделю. Архивные данные за месяц целиком и за предыдущие месяцы, начиная с января 2011 года, Вы можете получить, выбрав интересующий диапазон дат из раскрывающегося списка и нажав кнопку "Ввод!".


*Определитесь, кто Вы:
робот инопланетянин человек

Внимание! Время в таблицах - всемирное. Для получения местного времени необходимо прибавить поправку, которая равна 5.5 ч.

Смотрите также архив погоды в соседних городах и на ближайших метеорологических станциях:

Погода в Медаке (Телингана, Индия) (71 км)
Погода в Нандеде (Махараштра, Индия) (93 км)
Погода в Бидаре (Карнатака, Индия) (103 км)
Погода в Адилабаде (Телингана, Индия) (118 км)
Погода в Аджере (Махараштра, Индия) (123 км)
Погода в Рамагундэме (Телингана, Индия) (141 км)
Погода в Хайдарабаде (Телингана, Индия) (141 км)
Погода в Парбхани (Махараштра, Индия) (143 км)
Погода в Ханамконде (Телингана, Индия) (171 км)
Погода в Вашиме (Махараштра, Индия) (191 км)

Пояснения к столбцам:

Ветер - указаны скорость ветра в м/с - средняя за 10 мин, порывы в срок и между сроками (в фигурных скобках) и направление, откуда дует ветер: С - северный, СВ - северо-восточный, В - восточный, ЮВ - юго-восточный, Ю - южный, ЮЗ - юго-западный, З - западный, СЗ - северо-западный.
Видимость - горизонтальная дальность видимости в метрах или километрах. При видимости от 1 до 10 км при отсутствии осадков обычно наблюдается дымка, при ухудшении видимости до 1 км и менее - туман. В сухую погоду видимость может ухудшаться дымом, пылью или мглою.
Явления - указаны атмосферные явления, наблюдавшиеся в срок или в последний час перед сроком; фигурными скобками обозначены явления, наблюдавшиеся между сроками (за 1-3 часа до срока); квадратными скобками обозначены град или гололедные отложения с указанием их диаметра в мм.
Облачность - указаны через наклонную черту общая и нижняя облачность в баллах и высота нижней границы облаков в метрах; квадратными скобками обозначены формы облаков: Ci - перистые, Cs - перисто-слоистые, Cc - перисто-кучевые, Ac - высококучевые, As - высокослоистые, Sc - слоисто-кучевые, Ns - слоисто-дождевые, Cu - кучевые, Cb - кучево-дождевые. Подробнее классификацию облаков см. в Атласе облаков (PDF).
T - Температура воздуха - температура, измеренная на высоте 2 м над землей.
Td - Температура точки росы - температура, при понижении до которой содержащийся в воздухе водяной пар достигнет насыщения.
f - Относительная влажность воздуха - влажноcть воздуха, измеренная на высоте 2 м над землей.
Te - Эффективная температура - температура, которую ощущает одетый по сезону человек в тени. Характеристика душности погоды. При расчете учитывается влияние влажности воздуха и скорости ветра на теплоощущения человека.
Tes - Эффективная температура на солнце - температура, которую ощущает человек, с поправкой на солнечный нагрев. Характеристика знойности погоды. Зависит от высоты солнца над горизонтом, облачности и скорости ветра. Ночью, в пасмурную погоду, а также при ветре 12 м/с и более поправка равна нулю.
P - Атмосферное давление - приведенное к уровню моря атмосферное давление.
Po - Атмосферное давление - измеренное на уровне метеостанции атмосферное давление.
Tmin - Минимальная температура - минимум температуры воздуха на высоте 2 м над землей.
Tmax - Максимальная температура - максимум температуры воздуха на высоте 2 м над землей.
R - Количество осадков - Количество выпавших осадков за период времени, мм. При наведении курсора мыши на число - период времени, за который выпало указанное количество осадков.
R24 - Количество осадков - Количество выпавших осадков за 24 часа, мм.
S - Снежный покров - Высота снежного покрова, см. При наведении курсора мыши на число - состояние снежного покрова и степень покрытия местности в баллах.